Погода в Сорове

Россия / Архангельская область     61°16′48″N   48°28′50″E
темп.,
°C
ветер,
м/с
пор.,
м/с
влажн.,
%
обл.,
%
осадки,
мм/ч
давл.,
гПа
погр.,
м
11 мая, вт
вт1100:00+3ю118697 0.0 102910
03:00+3ю228676 0.0 103012
06:00+7ююз127353 0.0 1030145
09:00+12юз345099 0.0 1030721
12:00+16зюз354470 0.0 10291046
15:00+17зюз3448100 0.0 10291062
18:00+15юз256599 0.0 1029173
21:00+11юз23835 0.0 103053
12 мая, ср
ср1200:00+9юз2689100 0.0 1030106
03:00+9юз278982 0.0 1030126
06:00+13зюз377219 0.0 1030215
09:00+18зюз355379 0.0 1030691
12:00+21зюз454311 0.0 10291149
15:00+22зюз344032 0.0 10281295
18:00+21юз24546 0.0 1027160
21:00+14юз227411 0.0 102811
13 мая, чт
чт1300:00+13ююз22783 0.0 102811
03:00+12ююз22820 0.0 102819
06:00+15ююз24670 0.0 1027164
09:00+21ююз24455 0.0 1027688
12:00+24юз344213 0.0 10261732
15:00+23юз3548100 0.0 1024946
18:00+22ю2355100 0.0 102393
21:00+18ю246721 0.0 102288
14 мая, пт
пт1400:00+15ююз297941 0.3 1022192
03:00+13ююз248595 0.3 102277
06:00+16ю277795 0.1 1021208
09:00+20ю41061100 0.1 1020818
12:00+21ююз595693 0.1 10181279
15:00+19зюз3871100 1.9 1018509
18:00+20з37664 0.3 1017903
21:00+15юз2888100 0.3 1017154
15 мая, сб
сб1500:00+13зюз2490100 0.0 101767
03:00+13юз229010 0.0 101827
06:00+16ююз24756 0.0 1017194
09:00+21ю345395 0.0 1016938
12:00+24ююз464498 0.0 10151776
15:00+25юз484499 0.0 10132255
18:00+23ю375793 0.1 1011233
21:00+21ю41464100 0.1 1009519